Terminal Aerodrome Forecast
Issued by NWS Tulsa, OK

Home | Current Version | Previous Version | Text Only | Print | Product List | Glossary On
Versions: 1 2 3 4 5 6 7 8 9 10 11 12 13 14
731
FTUS44 KTSA 212320
TAFFSM
TAF
KFSM 212320Z 2200/2224 20006KT P6SM SCT050
     FM220200 VRB04KT P6SM SCT250
     FM221500 25005KT P6SM SCT050 BKN250
     FM221800 27008KT P6SM SCT050 BKN150 PROB30 2221/2224 6SM -TSRA
      BKN050CB=

USA.gov is the U.S. government's official web portal to all federal, state and local government web resources and services.